Location: Bartolfelde
(51.5964°N, 10.4579°E)
Time: 12:31:49
(UTC+00:00)

Daily predictions for brighter satellites

Satellite Brightness Start Highest point End
(mag) Time Altitude Azimuth Time Altitude Azimuth Time Altitude Azimuth
Cosmos 44 4.3 19:18:19 10° NNW 19:22:47 37° NE 19:27:29 10° ESE
Genesis I 3.8 19:19:01 10° NW 19:22:50 54° SW 19:26:37 10° SSE
USA 186 3.7 19:21:56 10° SSW 19:23:41 20° W 19:25:29 10° NW
Cosmos 1980 Rocket 2.3 19:18:39 10° NNW 19:24:23 88° WSW 19:30:03 10° SSE
OBJECT-B 0.9 19:22:20 10° SSE 19:25:37 83° WSW 19:28:56 10° NNW
CZ-2C R/B 3.9 19:23:18 10° NNE 19:27:49 52° E 19:32:14 10° S
Intercosmos 25 3.5 19:24:57 10° NNW 19:29:08 68° W 19:32:21 10° S
Cosmos 614 Rocket 4.3 19:26:24 10° SSW 19:31:34 76° WNW 19:36:50 10° NNE
Cosmos 1470 Rocket 4.3 19:30:04 10° SSE 19:34:00 33° E 19:37:54 10° NNE
Meteor 1-4 Rocket 2.4 19:33:25 10° NNW 19:36:55 86° WSW 19:40:21 10° S
Cosmos 1697 Rocket 3.8 19:32:15 10° NW 19:37:32 43° WSW 19:42:47 10° S
Cosmos 1833 Rocket 2.8 19:32:00 10° SSW 19:37:39 84° WNW 19:43:20 10° NNE
NOSS 3-2 (A) 3.7 19:32:26 10° S 19:37:48 43° ESE 19:43:53 10° NE
Cosmos 1184 Rocket 3.3 19:35:24 10° SSE 19:38:30 39° E 19:41:38 10° NNE
SJ-6B 4.4 19:34:50 10° SSW 19:38:33 36° W 19:42:14 10° NNW
Cosmos 1862 4.5 19:35:02 10° SSW 19:38:59 49° WNW 19:42:57 10° N
USA 267 4.0 19:33:35 10° ENE 19:39:06 28° SE 19:44:35 10° S
Sich 1 3.3 19:35:50 10° SSW 19:40:17 77° WNW 19:44:45 10° N
H-2A R/B 4.4 19:39:09 10° SW 19:43:02 22° W 19:46:52 10° NW
SPOT 5 4.1 19:40:40 10° ESE 19:44:05 24° ENE 19:47:39 10° N
Cosmos 405 Rocket 3.7 19:42:30 10° SSE 19:45:40 27° E 19:48:53 10° NNE
Cosmos 1862 Rocket 3.6 19:41:24 10° N 19:45:54 76° E 19:50:18 10° SSE
SL-27 R/B 4.3 19:46:33 12° ESE 19:47:02 12° E 19:48:24 10° ENE
Cosmos 1437 Rocket 3.8 19:43:53 10° N 19:47:15 29° ENE 19:49:58 13° SE
NOSS 3-2 (C) 4.0 19:42:14 10° S 19:47:16 32° ESE 19:52:54 10° NE
SPOT 1/Viking Rocket 4.0 19:45:04 11° SE 19:49:56 48° ENE 19:54:57 10° N
Cosmos 1934 Rocket 4.0 19:45:16 10° S 19:51:37 76° E 19:57:59 10° NNE
Cosmos 2333 Rocket 4.1 19:47:42 10° NNW 19:51:55 20° NNE 19:56:08 10° E
ERBS 4.0 19:49:27 10° WNW 19:52:28 31° N 19:55:29 10° ENE
Landsat 7 4.0 19:48:45 11° SSE 19:53:18 57° ENE 19:58:00 10° N
Resurs 01 Rocket 1.8 19:48:59 10° S 19:53:23 75° WSW 19:57:51 10° NNW
USA 32 4.2 19:49:23 10° SSE 19:54:29 55° E 19:59:36 10° NNE
Cosmos 676 Rocket 4.0 19:54:11 10° SSW 19:59:29 74° ESE 20:04:51 10° NNE
GP-B 3.1 19:55:43 10° N 20:00:09 65° E 20:04:34 10° S
ERS-1 Rocket 3.6 19:56:12 14° SE 20:00:11 40° ENE 20:04:52 10° N
Okean 1 3.5 19:58:59 10° N 20:02:59 55° ENE 20:06:07 16° SSE
Cosmos 841 Rocket 4.2 19:58:35 10° NNW 20:03:34 42° NE 20:07:29 16° ESE
Meteor 1-19 Rocket 4.3 19:58:24 10° N 20:03:46 57° ENE 20:08:21 14° SSE
OPS 6432 4.5 20:02:54 10° SW 20:06:49 83° NW 20:09:56 10° NE
CARTOSAT-1 4.1 20:06:55 17° SE 20:09:55 42° ENE 20:14:02 10° N
BREEZE-M DEB (TANK) 1.9 20:08:34 10° W 20:11:06 47° S 20:11:49 29° SE
Cosmos 468 Rocket 4.0 20:05:47 10° NNW 20:11:09 87° ENE 20:15:29 16° SSE
Cosmos 1867 3.6 20:07:23 10° SW 20:12:51 88° NW 20:18:21 10° NE
Cosmos 1933 Rocket 3.7 20:10:19 10° S 20:14:38 57° E 20:19:01 10° NNE
Cosmos 1666 Rocket 4.4 20:10:58 10° SSW 20:15:11 51° WNW 20:19:28 10° N
USA 234 3.3 20:10:46 13° ESE 20:16:44 83° NNE 20:23:18 10° WNW
SL-4 R/B 1.7 20:12:46 10° WSW 20:16:44 81° S 20:20:23 10° E
ATLAS 3B R/B 3.7 20:14:38 16° SE 20:17:48 22° ESE 20:22:40 10° ENE
IGS 5A 3.5 20:15:47 14° SSE 20:19:17 85° WSW 20:23:28 10° NNW
Meteor 2-4 Rocket 4.1 20:15:04 10° N 20:20:35 50° ENE 20:24:18 20° SE
Cosmos 1869 Rocket 4.4 20:23:53 21° SE 20:25:58 32° E 20:29:58 10° NNE
Iridium 4 Rocket 4.3 20:25:27 20° ESE 20:26:58 25° E 20:30:22 10° NNE
Cosmos 1814 Rocket 4.4 20:22:11 10° NNW 20:27:17 51° ENE 20:30:36 21° SE
Meteor 1-14 Rocket 4.4 20:23:17 11° S 20:28:51 58° E 20:34:42 10° NNE
Cosmos 1954 Rocket 4.4 20:23:52 10° SSW 20:29:11 71° WNW 20:34:32 10° NNE
CZ-2C R/B 4.3 20:25:20 10° N 20:29:58 34° WNW 20:34:38 10° SW
Spot 2 Rocket 3.7 20:25:34 14° S 20:30:03 73° WSW 20:35:10 10° NNW
SL-16 R/B 2.2 20:24:32 10° NNW 20:30:15 87° WSW 20:34:14 21° SSE
Cosmos 2219 Rocket 3.7 20:25:52 10° NNW 20:30:41 27° NE 20:35:05 12° E
CZ-4B DEB 4.3 20:30:11 28° SSE 20:31:48 69° ENE 20:35:08 10° N
Okean 1-7 2.9 20:29:02 10° N 20:33:23 76° E 20:35:59 23° SSE
Cosmos 1741 Rocket 4.1 20:28:45 10° S 20:33:53 57° ESE 20:39:04 10° NNE
Cosmos 1703 Rocket 3.5 20:30:05 10° N 20:34:28 86° E 20:37:16 22° SSE
ATLAS 5 CENTAUR R/B 2.1 20:34:19 10° NW 20:36:38 50° NE 20:39:33 19° ESE
USA 238 DEB 3.6 20:30:10 10° SW 20:36:50 85° SE 20:43:51 10° NE
USA 238 3.6 20:30:18 10° SW 20:36:57 85° SE 20:43:58 10° NE
Cosmos 1570 Rocket 4.1 20:34:06 10° NNW 20:39:27 75° ENE 20:42:42 24° SE
Meteor 1-18 Rocket 4.4 20:33:56 10° NNW 20:39:31 73° W 20:44:01 16° S
Cosmos 2082 Rocket 3.1 20:36:26 10° SW 20:41:58 51° NW 20:47:31 10° NNE
Terra 2.0 20:40:06 25° SE 20:42:43 57° ENE 20:47:24 10° N
Lacrosse 5 2.6 20:38:08 10° WNW 20:42:55 42° SW 20:45:36 23° SSE
Meteor 1-25 Rocket 4.4 20:37:28 10° SSW 20:43:03 73° WNW 20:48:43 10° N
Cosmos 1238 Rocket 3.1 20:44:11 12° SSW 20:46:43 45° WNW 20:49:40 10° N
USA 276 2.7 20:43:45 10° W 20:46:45 38° SSW 20:47:07 37° S
CENTAUR R/B 2.5 20:41:21 10° SSW 20:47:21 68° SE 20:54:29 10° NE
Cosmos 1605 Rocket 4.2 20:42:04 10° SSW 20:48:09 69° WNW 20:54:15 10° N
Cosmos 2208 Rocket 4.0 20:42:56 10° NNW 20:48:14 75° ENE 20:51:06 27° SE
Cosmos 1763 Rocket 4.0 20:43:37 10° NNW 20:48:50 57° WSW 20:52:27 20° S
Cosmos 2322 Rocket 2.3 20:43:18 10° NNW 20:49:01 79° WSW 20:52:29 25° SSE
Cosmos 2100 Rocket 4.1 20:45:27 20° SSE 20:49:36 57° E 20:55:37 10° NNE
X-37B 2.5 20:48:37 10° WSW 20:50:24 18° SSW 20:50:24 18° SSW
H-2A R/B 4.4 20:51:47 10° N 20:55:45 47° WNW 20:59:44 10° SW
FALCON 9 DEB 3.3 20:52:44 10° W 20:56:14 73° N 20:58:46 18° ENE
Cosmos 2237 4.2 20:51:08 10° NNW 20:56:54 79° ENE 20:59:59 28° SE
Cosmos 2173 Rocket 4.0 20:52:59 22° SSE 20:56:57 60° E 21:02:57 10° NNE
Cosmos 1733 Rocket 4.3 20:57:31 23° E 20:58:07 24° E 21:01:40 10° NNE
Cosmos 2084 Rocket 3.3 20:55:03 10° SSW 20:59:13 66° SE 21:03:30 10° NE
Cosmos 2360 Rocket 2.2 20:53:58 10° NNW 20:59:41 76° ENE 21:02:39 29° SE
Cosmos 1500 3.1 20:59:53 39° SSE 21:01:04 65° E 21:04:48 10° NNE
Cosmos 44 3.7 20:59:26 10° NW 21:04:14 55° SW 21:06:35 29° S
Cosmos 1980 Rocket 4.4 21:04:01 10° WNW 21:07:34 17° W 21:11:06 10° SW
SAR-Lupe-2 3.4 21:05:20 10° NNE 21:08:57 86° ESE 21:10:12 39° SSW
Cosmos 1356 4.3 21:10:48 34° E 21:10:48 34° E 21:13:40 10° NNE
Cosmos 1666 3.2 21:11:57 39° ESE 21:12:09 39° E 21:15:41 10° NNE
Cosmos 1459 Rocket 4.0 21:08:09 22° S 21:12:22 76° E 21:18:45 10° NNE
Cosmos 1242 Rocket 3.2 21:12:42 10° N 21:16:10 40° ENE 21:16:36 38° E
Cosmos 2016 Rocket 4.2 21:13:23 29° SSE 21:16:37 59° E 21:22:53 10° NNE
COSMOS 2428 3.5 21:13:21 10° NNW 21:18:50 44° NE 21:21:52 24° ESE
Cosmos 44 Rocket 4.1 21:14:51 10° NW 21:19:39 47° NE 21:22:15 25° E
Cosmos 2221 Rocket 3.5 21:15:34 10° N 21:20:05 79° E 21:21:32 43° SSE
Cosmos 2346 Rocket 4.4 21:14:12 10° N 21:20:17 77° E 21:23:11 33° SSE
SL-27 R/B 2.9 21:20:03 26° SW 21:21:40 56° WNW 21:24:58 10° NNE
SPOT 5 3.3 21:19:54 27° SSW 21:21:56 48° W 21:26:15 10° NNW
USA 267 3.1 21:16:15 10° ENE 21:22:50 76° SSE 21:29:23 10° SW
Cosmos 1437 Rocket 4.4 21:20:12 10° NW 21:23:26 27° W 21:25:21 18° SW
Cosmos 540 Rocket 4.0 21:22:28 10° NNW 21:27:29 51° WSW 21:29:45 30° SSW
Cosmos 1743 4.4 21:28:20 21° ENE 21:28:20 21° ENE 21:30:55 10° NE
Cosmos 1378 4.1 21:24:35 10° N 21:28:00 32° ENE 21:28:16 32° E
NOSS 3-2 (A) 4.2 21:22:38 10° WSW 21:28:30 57° NW 21:35:18 10° NE
Cosmos 2237 Rocket 3.8 21:23:47 10° NNW 21:28:34 27° NE 21:32:28 13° E
Lacrosse 4 Rocket 2.4 21:29:55 31° E 21:29:55 31° E 21:32:55 10° NE
ERBS 3.3 21:26:05 10° NW 21:29:17 41° NNE 21:30:18 31° ENE
Cosmos 1378 Rocket 4.2 21:28:11 10° N 21:32:26 42° ENE 21:33:20 37° ESE
Cosmos 1271 Rocket 3.6 21:31:37 10° N 21:35:08 34° ENE 21:35:26 33° E
Cosmos 2333 Rocket 2.4 21:31:35 10° NNW 21:37:22 66° NE 21:39:44 36° SE
NOSS 3-2 (C) 3.8 21:31:46 10° WSW 21:37:39 69° NW 21:44:31 10° NE
ERS-1 Rocket 4.2 21:36:13 20° SSW 21:39:03 34° W 21:43:38 10° NNW
Cosmos 2061 Rocket 3.9 21:37:27 31° S 21:40:35 83° E 21:46:49 10° NNE
Meteor 1-11 Rocket 3.7 21:42:34 35° S 21:45:04 83° E 21:50:55 10° NNE
Cosmos 1066 Rocket 4.1 21:40:07 10° NNW 21:45:51 85° ENE 21:47:48 43° SSE
Cosmos 2233 Rocket 4.2 21:45:59 38° SSE 21:48:10 55° E 21:54:20 10° NNE
Cosmos 1802 Rocket 4.1 21:45:24 25° SSW 21:49:18 76° W 21:55:41 10° N
Okean 3 4.4 21:47:36 10° NNW 21:51:41 42° W 21:52:58 33° SW
Cosmos 1975 Rocket 4.5 21:48:32 10° N 21:52:21 26° ENE 21:53:12 25° E
COSMOS 2487 2.9 21:55:26 50° NE 21:55:26 50° NE 21:58:09 10° NNE
SL-4 R/B 1.8 21:52:34 10° W 21:55:57 69° W 21:55:57 69° W
Thor Agena Rocket 3.9 21:52:38 10° NNE 21:57:32 46° E 21:58:13 43° ESE
USA 234 3.8 21:58:07 34° S 22:00:08 43° SW 22:06:19 10° WNW
Spot 4 3.8 22:03:39 56° SSE 22:04:40 84° ENE 22:09:32 10° NNW
Iridium 4 Rocket 4.2 22:05:13 26° WSW 22:06:49 36° W 22:10:42 10° NNW
ATLAS 3B R/B 2.5 22:01:44 14° SW 22:07:36 85° SE 22:14:19 10° NE
Cosmos 2227 Rocket 4.3 22:09:36 12° E 22:09:36 12° E 22:11:14 10° ENE
Meteor 1-23 Rocket 4.4 22:06:10 10° NNW 22:11:58 67° W 22:13:53 42° SSW
Cosmos 1536 3.2 22:12:10 50° WSW 22:12:46 56° WNW 22:16:42 10° N
SL-16 R/B 4.2 22:10:01 10° WNW 22:13:33 17° W 22:16:06 13° SW
Cosmos 2219 Rocket 2.1 22:09:34 10° NNW 22:15:17 81° WSW 22:16:46 51° SSE
Cosmos 1674 Rocket 3.7 22:13:20 10° NNW 22:17:38 60° W 22:18:08 55° SW
NOSS 0 Rocket 4.1 22:11:55 10° NNW 22:18:11 69° NE 22:20:35 39° SE
Terra 3.6 22:19:00 18° WSW 22:20:50 22° W 22:24:32 10° NW
Cosmos 2322 4.0 22:16:48 10° NW 22:22:18 53° WSW 22:23:35 44° SSW
Cosmos 1842 3.7 22:19:46 10° N 22:23:29 51° ENE 22:23:29 51° ENE
EO 1 Del DPAF 3.6 22:20:32 10° NNE 22:23:43 54° ENE 22:23:43 54° ENE
Tsikada Rocket 4.5 22:19:39 10° NNW 22:25:48 54° W 22:28:15 34° SSW
Cosmos 1833 4.3 22:24:31 30° SW 22:27:23 72° WNW 22:33:06 10° NNE
MOS 1-B Rocket 3.9 22:22:04 10° NNE 22:27:43 76° WNW 22:29:54 39° SSW
Cosmos 2344 4.4 22:19:17 10° NW 22:28:09 71° NE 22:39:29 13° ESE
Cosmos 1503 Rocket 4.1 22:29:01 54° SE 22:29:35 56° ESE 22:34:50 10° NNE
Okean 2 3.4 22:27:39 10° N 22:31:45 73° ENE 22:31:45 73° ENE
Cosmos 2322 Rocket 4.3 22:29:01 10° WNW 22:32:09 15° W 22:34:18 12° WSW
Geosat 4.2 22:33:13 52° SSW 22:33:54 56° WSW 22:38:52 10° NW
Meteor 2-11 Rocket 4.3 22:32:28 50° S 22:34:12 82° E 22:40:21 10° NNE
Cosmos 1486 Rocket 3.9 22:33:50 52° SW 22:35:10 83° WNW 22:40:25 10° NNE
ALOS 2 2.4 22:35:05 79° SE 22:35:21 86° ENE 22:39:47 10° NNW
Cosmos 1733 Rocket 4.0 22:34:35 36° WSW 22:35:41 43° WNW 22:39:56 10° N
CENTAUR R/B 3.7 22:32:18 10° W 22:38:29 46° NNW 22:45:47 10° NE
SL-16 R/B 3.6 22:37:30 10° NNW 22:42:39 33° NE 22:46:19 17° E
Cosmos 2360 Rocket 3.8 22:38:51 10° NW 22:43:05 22° WSW 22:44:24 20° WSW
Cosmos 1975 3.1 22:43:45 58° ENE 22:43:45 58° ENE 22:47:20 10° NNE
Meteor 1-21 4.2 22:40:42 10° N 22:46:33 80° ENE 22:47:53 55° SSE
SL-24 DEB 4.1 22:48:48 10° N 22:53:36 77° E 22:53:57 72° SE
Cosmos 773 Rocket 3.9 22:48:51 10° NNW 22:54:01 81° ENE 22:54:49 64° SE
Cosmos 968 Rocket 3.7 22:58:02 44° WSW 22:59:28 63° WNW 23:04:35 10° NNE
Helios 1A 3.1 22:59:37 64° ENE 22:59:41 64° ENE 23:03:53 10° N
Cosmos 1782 Rocket 3.4 23:00:31 83° ENE 23:00:31 83° ENE 23:04:49 10° NNE
Cosmos 44 Rocket 4.0 22:56:31 10° NW 23:00:56 40° WSW 23:00:56 40° WSW
Cosmos 2297 Rocket 3.1 23:02:01 33° ESE 23:02:12 33° ESE 23:07:13 10° NE
COSMOS 2428 3.3 22:57:45 10° NW 23:03:09 43° WSW 23:03:51 41° SW
Cosmos 1743 3.7 23:03:24 39° WNW 23:03:29 39° WNW 23:07:11 10° N
Meteor 2-9 Rocket 4.1 23:03:16 60° S 23:04:21 81° E 23:10:09 10° NNE
Cosmos 1980 3.6 22:59:18 10° NNW 23:05:01 85° WSW 23:06:08 59° SSE
Cosmos 1538 Rocket 4.1 23:00:04 10° NNW 23:05:14 68° ENE 23:06:16 53° ESE
USA 267 3.7 22:59:21 10° ENE 23:05:48 62° NNW 23:12:14 10° W
Lacrosse 4 Rocket 2.7 23:06:12 28° W 23:07:46 38° NW 23:11:42 10° NNE
Cosmos 1908 Rocket 4.1 23:07:34 48° W 23:07:57 49° WNW 23:12:13 10° N
Cosmos 1607 4.2 23:03:46 10° NW 23:10:13 69° NE 23:13:36 30° ESE
Cosmos 1271 Rocket 4.5 23:07:55 10° NW 23:10:34 23° W 23:10:34 23° W
In-Cosmos 22 4.5 23:05:59 10° N 23:11:30 57° ENE 23:12:49 45° ESE
Cosmos 2237 Rocket 2.1 23:07:36 10° NNW 23:13:17 80° WSW 23:14:16 61° S
Cosmos 2219 3.6 23:13:13 45° ESE 23:13:36 45° ESE 23:18:56 10° NE
Cosmos 2333 Rocket 3.4 23:16:28 10° NW 23:21:12 27° WSW 23:21:43 26° WSW
Cosmos 1544 4.2 23:21:39 37° WNW 23:21:39 37° WNW 23:24:48 10° N
Timation 2 Rocket 3.8 23:26:06 55° S 23:27:27 77° ESE 23:33:29 10° NE
Meteor 1-12 Rocket 4.4 23:28:45 52° SSE 23:30:04 67° E 23:36:04 10° NNE
Cosmos 1975 Rocket 3.8 23:26:09 10° NNW 23:30:20 41° W 23:30:20 41° W
Cosmos 1674 3.8 23:29:45 10° N 23:33:07 37° ENE 23:33:07 37° ENE
Cosmos 1300 Rocket 3.5 23:34:20 70° E 23:34:20 70° E 23:38:31 10° NNE
Cosmos 1354 Rocket 4.5 23:33:47 41° WSW 23:35:19 56° WNW 23:40:36 10° NNE
Cosmos 1464 Rocket 4.2 23:39:31 44° SW 23:41:22 63° WNW 23:47:30 10° N
Helios 1B rocket 3.2 23:41:20 10° NNE 23:45:01 42° E 23:45:01 42° E
Cosmos 1680 Rocket 4.0 23:40:16 10° NNW 23:45:26 54° ENE 23:47:20 35° ESE
Meteor 2-5 Rocket 4.4 23:40:48 10° N 23:46:13 47° ENE 23:48:23 32° ESE
CZ-2D R/B 4.0 23:42:27 10° NE 23:46:20 19° E 23:48:16 16° ESE
Cosmos 1707 3.5 23:44:07 10° NNW 23:47:18 45° WNW 23:47:18 45° WNW
Okean 2 Rocket 3.0 23:50:15 76° WSW 23:50:24 78° WNW 23:54:57 10° N
Nadezhda 4 Rocket 4.2 23:44:21 10° NNW 23:50:31 58° W 23:52:00 47° SW
Okean 1 Rocket 3.8 23:51:41 39° E 23:51:53 40° E 23:55:59 10° NNE
Cosmos 2227 Rocket 2.2 23:51:25 56° SSE 23:52:19 64° ESE 23:57:57 10° NE
Cosmos 1025 Rocket 3.2 23:49:21 10° NNW 23:53:18 57° WNW 23:53:18 57° WNW
Cosmos 1777 Rocket 3.9 23:52:43 64° SSW 23:53:35 88° WNW 23:58:56 10° NNE
SJ 16-02 2.5 23:55:08 32° ESE 23:55:08 32° ESE 23:59:02 10° NE
